EW9581 Weather Reports


time (UTC)temp
C
wind
direction
speed
KPH
gust
KPH
rain 1hr
cm
rain 24hr
cm
rain mn
cm
humidity
%
barometer
mb
20260505093002 12 91 0.0 0.0 0.00 0.00 0.00 77 1017.4
20260505091559 12 91 0.0 0.0 0.00 0.00 0.00 77 1017.4
20260505090056 13 91 0.0 1.6 0.00 0.00 0.00 75 1017.4
20260505084559 13 110 0.0 1.6 0.00 0.00 0.00 74 1017.2
20260505083056 14 120 0.0 1.6 0.00 0.00 0.00 73 1017.3
20260505081542 15 145 0.0 4.8 0.00 0.00 0.00 72 1017.3
20260505080040 15 124 0.0 9.7 0.00 0.00 0.00 72 1017.1
20260505074537 15 151 0.0 6.4 0.00 0.00 0.00 71 1016.9
20260505073035 15 134 0.0 4.8 0.00 0.00 0.00 70 1016.9
20260505071534 15 124 1.6 6.4 0.00 0.00 0.00 70 1016.9
20260505070034 16 135 1.6 8.0 0.00 0.00 0.00 70 1016.8
20260505064539 16 121 1.6 6.4 0.00 0.00 0.00 70 1016.8
20260505063031 16 116 0.0 9.7 0.00 0.00 0.00 69 1016.8
20260505061529 16 123 0.0 8.0 0.00 0.00 0.00 68 1016.9
20260505060026 16 120 0.0 12.9 0.00 0.00 0.00 67 1016.9
20260505054542 17 105 0.0 8.0 0.00 0.00 0.00 66 1016.9
20260505053024 17 130 1.6 9.7 0.00 0.00 0.00 66 1016.9
20260505051520 17 119 3.2 11.3 0.00 0.00 0.00 65 1017.0
20260505041513 18 123 3.2 11.3 0.00 0.00 0.00 63 1016.8
20260505040011 18 90 1.6 12.9 0.00 0.00 0.00 62 1016.7
20260505034509 18 128 4.8 11.3 0.00 0.00 0.00 61 1016.8
20260505033011 18 135 1.6 12.9 0.00 0.00 0.00 60 1016.7
20260505031508 19 116 3.2 12.9 0.00 0.00 0.00 59 1016.7
20260505030024 19 135 3.2 14.5 0.00 0.00 0.00 56 1016.8
20260505024509 20 116 3.2 9.7 0.00 0.00 0.00 52 1016.7
20260505023006 20 124 0.0 12.9 0.00 0.00 0.00 48 1016.7
20260505021506 20 131 0.0 6.4 0.00 0.00 0.00 46 1016.4
20260505020005 20 121 3.2 8.0 0.00 0.00 0.00 46 1016.3
20260505014508 20 172 0.0 8.0 0.00 0.00 0.00 46 1016.1
20260505013007 20 125 0.0 6.4 0.00 0.00 0.00 46 1015.9
20260505011504 20 129 0.0 1.6 0.00 0.00 0.00 44 1015.9
20260505010002 20 119 0.0 1.6 0.00 0.00 0.00 43 1015.7
20260505004504 20 114 0.0 3.2 0.00 0.00 0.00 42 1015.5
20260505003102 20 130 0.0 4.8 0.00 0.00 0.00 42 1015.4
20260505001600 21 125 0.0 0.0 0.00 0.00 0.00 40 1015.3
20260505000113 22 125 0.0 0.0 0.00 0.00 0.00 37 1015.1
20260504234558 23 125 0.0 4.8 0.00 0.00 0.00 35 1015.0
20260504233109 24 121 0.0 6.4 0.00 0.00 0.00 35 1014.9
20260504231625 24 120 1.6 12.9 0.00 0.00 0.00 34 1014.8
20260504230058 25 136 3.2 9.7 0.00 0.00 0.00 34 1014.8
20260504224606 25 153 0.0 11.3 0.00 0.00 0.00 33 1014.8
20260504223056 26 93 3.2 16.1 0.00 0.00 0.00 32 1014.8
20260504221644 26 128 3.2 11.3 0.00 0.00 0.00 31 1014.9
20260504220055 26 124 1.6 17.7 0.00 0.00 0.00 30 1014.8
20260504214554 27 134 3.2 8.0 0.00 0.00 0.00 31 1015.0
20260504213100 26 134 3.2 14.5 0.00 0.00 0.00 30 1015.1
20260504211554 26 139 1.6 14.5 0.00 0.00 0.00 31 1015.0
20260504210053 26 129 3.2 12.9 0.00 0.00 0.00 31 1015.0
20260504204552 26 176 1.6 16.1 0.00 0.00 0.00 31 1015.1
20260504203050 26 134 8.0 20.9 0.00 0.00 0.00 30 1015.2
20260504201547 26 129 1.6 17.7 0.00 0.00 0.00 31 1015.4
20260504200047 26 107 4.8 12.9 0.00 0.00 0.00 29 1015.4
20260504194551 26 128 1.6 17.7 0.00 0.00 0.00 30 1015.6
20260504193047 26 127 3.2 14.5 0.00 0.00 0.00 30 1015.8
20260504191605 26 132 3.2 11.3 0.00 0.00 0.00 34 1016.2
20260504190041 25 124 4.8 17.7 0.00 0.00 0.00 32 1016.2
20260504184544 26 106 3.2 12.9 0.00 0.00 0.00 35 1016.3
20260504183035 26 117 3.2 16.1 0.00 0.00 0.00 30 1016.6
20260504181534 26 128 3.2 12.9 0.00 0.00 0.00 29 1016.6
20260504180034 25 121 0.0 11.3 0.00 0.00 0.00 33 1016.7
20260504174527 25 122 1.6 12.9 0.00 0.00 0.00 33 1016.9
20260504173026 25 122 3.2 12.9 0.00 0.00 0.00 35 1017.1
20260504171524 25 126 0.0 12.9 0.00 0.00 0.00 35 1017.3
20260504100104 3 124 0.0 0.0 0.00 0.00 0.00 52 1019.2